Regional Weather Roundup
Issued by NWS Sioux Falls, SD

Home | Current Version | Previous Version | Graphics & Text | Print | Product List | Glossary On
Versions: 1 2 3 4 5 6 7 8 9 10 11 12 13 14 15 16 17 18 19 20 21 22 23 24 25 26 27 28 29 30 31 32 33 34 35 36 37 38 39 40 41 42 43 44 45 46 47 48 49 50
000
ASUS43 KFSD 230210
RWRFSD

WEATHER ROUNDUP FOR SE SOUTH DAKOTA/SW MINNESOTA/NW IOWA
NATIONAL WEATHER SERVICE SIOUX FALLS SD
800 PM CST WED FEB 22 2017

NOTE: "FAIR" INDICATES FEW OR NO CLOUDS BELOW 12,000 FEET WITH NO
SIGNIFICANT WEATHER AND OR OBSTRUCTIONS TO VISIBILITY.


SDZ038>040-050-052>070-230300-
SOUTHEAST SOUTH DAKOTA

CITY           SKY/WX    TMP DP  RH WIND       PRES   REMARKS
BROOKINGS      CLOUDY    36  32  85 N15       29.80R
CHAMBERLAIN    PTCLDY    41  38  89 N14       29.85R
HURON          CLOUDY    35  31  85 N18G25    29.86R WCI  24
MADISON        CLOUDY    37  37 100 N12       29.81R
MITCHELL       CLOUDY    39  36  89 N20       29.84R
SIOUX FALLS    PTCLDY    41  37  86 N13       29.79R
WINNER         FAIR      39  33  79 N14       29.87R
YANKTON        CLEAR     45  37  76 N9        29.80R
$$

MNZ071-072-080-081-089-090-097-098-230300-
SOUTHWEST MINNESOTA

CITY           SKY/WX    TMP DP  RH WIND       PRES   REMARKS
FAIRMONT       MOCLDY    42  39  89 NW21G26   29.72R
JACKSON          N/A     39  36  87 NW20G26   29.75R
LUVERNE        PTCLDY    41  36  81 N7        29.78R
MARSHALL       CLOUDY    35  32  88 NW20G31   29.79R WCI  24
MONTEVIDEO     CLOUDY    36  34  93 N16G22    29.80R
PIPESTONE      MOCLDY    41  34  75 N9        29.77R
REDWOOD FALLS  CLOUDY    40  35  83 NW15G25   29.73R
TRACY          CLOUDY    38  36  93 NW20      29.80R
WINDOM         CLOUDY    39  37  93 NW20G25   29.76R
WORTHINGTON    MOCLDY    39  37  92 N16       29.77R
$$

IAZ001>003-012>014-020>022-031-032-NEZ013-014-SDZ071-230300-
NORTHWEST IOWA

CITY           SKY/WX    TMP DP  RH WIND       PRES   REMARKS
CHEROKEE       PTCLDY    47  41  79 NW13      29.75S
DENISON        CLEAR     48  41  76 NW9       29.74R
ESTHERVILLE    PTCLDY    40  39  97 NW13      29.73R
LE MARS        CLEAR     46  39  76 N7        29.78R
ORANGE CITY    PTCLDY    45  41  87 NW12      29.76S
SHELDON        PTCLDY    45  45 100 N12       29.75R
SIOUX CITY     CLEAR     51  40  65 N12       29.77R
SPENCER        CLEAR     44  41  89 N12       29.74R
STORM LAKE     CLEAR     48  41  76 NW22G31   29.73S
$$

ABBREVIATIONS USED IN REMARKS
   TC - TEMPERATURE IN CELSIUS
  WCI - WIND CHILL INDEX
   HX - HEAT INDEX
  VSB - VISIBILITY




USA.gov is the U.S. government's official web portal to all federal, state and local government web resources and services.